Regional Weather Roundup
Issued by NWS

Home | Current Version | Previous Version | Graphics & Text | Print | Product List | Glossary On
Versions: 1 2 3 4 5 6 7 8 9 10 11 12 13 14 15 16 17 18 19 20 21 22 23 24 25 26 27 28 29 30 31 32 33 34 35 36 37 38 39 40 41 42 43 44 45 46 47 48 49 50
000
ASUS43 KDTX 241910
RWRMI
MICHIGAN HOURLY REGIONAL WEATHER ROUNDUP
NATIONAL WEATHER SERVICE DETROIT/PONTIAC MI
ISSUED BY NATIONAL WEATHER SERVICE GRAND RAPIDS MI
300 PM EDT MON JUL 24 2017

NOTE: "FAIR" INDICATES FEW OR NO CLOUDS BELOW 12,000 FEET WITH NO
SIGNIFICANT WEATHER AND/OR OBSTRUCTION TO VISIBILITY.

MIZ047>049-052>055-059>063-066>070-074>076-081>083-242000-
SOUTHEAST LOWER MICHIGAN

CITY           SKY/WX    TMP DP  RH WIND       PRES   REMARKS
ADRIAN         CLOUDY    70  57  63 N10       30.02R
ALMA           CLOUDY    74  50  43 N8G16     30.03R
ANN ARBOR      CLOUDY    67  57  70 NW12      30.01R
BAD AXE        CLOUDY    65  56  73 N16G23    30.01R
DETROIT CITY   CLOUDY    72  56  57 N12G21    29.98R
DETROIT        CLOUDY    68  57  68 N9        29.99R
FLINT          MOSUNNY   73  55  53 N15G24    30.00S
GROSSE ILE     CLOUDY    69  57  65 N10       29.98R
HILLSDALE      CLOUDY    68  55  64 N6        30.02S
HOWELL         PTSUNNY   69  56  62 N10G16    30.01S

CITY           SKY/WX    TMP DP  RH WIND       PRES   REMARKS
JACKSON        CLOUDY    69  55  60 N10       30.03R
LANSING        MOSUNNY   74  54  49 NE12G22   30.02S
MASON          CLOUDY    69  58  68 N7G17     30.03R
MONROE         CLOUDY    68  59  71 NW8       29.99R
MT. CLEMENS    CLOUDY    69  58  66 N16G25    29.96R
PONTIAC        PTSUNNY   71  57  61 N15G21    29.98S
PORT HOPE        N/A     69  59  70 MISG      30.00R
PORT HURON     CLOUDY    70  57  64 NW12      29.97R
TRI CITIES     MOSUNNY   74  58  57 NE15      30.01S
YPSILANTI      CLOUDY    68  59  73 N13       30.01R
$$
MIZ043>046-050>051-056>058-064>065-071>073-077>080-242000-
SOUTHWEST LOWER MICHIGAN

CITY           SKY/WX    TMP DP  RH WIND       PRES   REMARKS
BATTLE CREEK   CLOUDY    72  56  57 VRB7      30.04R
BENTON HARBOR  MOSUNNY   73  58  59 NW8       30.03R
BIG RAPIDS     PTSUNNY   73  51  45 NE6       30.04R
COLDWATER      CLOUDY    69  58  65 N7        30.03R
HOLLAND        PTSUNNY   77  56  48 VRB5      30.03S
GRAND RAPIDS   PTSUNNY   76  55  48 NE10      30.02S
KALAMAZOO      PTSUNNY   73  53  49 N8        30.03R
MARSHALL       CLOUDY    70  56  61 N6        30.03R
MOUNT PLEASANT MOSUNNY   77  49  37 NE12      30.02R
MUSKEGON       MOSUNNY   79  54  41 E8        30.03S
STURGIS        CLOUDY    69  58  66 NE9       30.03R
$$
MIZ016>042-242000-
NORTHERN LOWER MICHIGAN

CITY           SKY/WX    TMP DP  RH WIND       PRES   REMARKS
ALPENA         SUNNY     74  55  51 N14       30.03R
BEAVER ISLAND  SUNNY     73  48  40 NE10      30.07S
BELLAIRE       SUNNY     74  50  42 N9        30.04S
CADILLAC       MOSUNNY   75  49  39 N8        30.05S
CHARLEVOIX     SUNNY     70  54  56 N10       30.09R
GAYLORD        SUNNY     72  44  36 N7G20     30.05S
HOUGHTON LAKE  PTSUNNY   72  51  47 N9        30.04S
MANISTEE       SUNNY     72  55  55 N13G20    30.05S
OSCODA         PTSUNNY   72  52  49 N13G18    30.01R
PELLSTON       SUNNY     75  45  34 NE13      30.05S
TRAVERSE CITY  MOSUNNY   74  51  44 N10       30.04S
LUDINGTON      CLOUDY    71  59  64 N13       30.04F
$$
MIZ007>008-015-242000-
EASTERN UPPER MICHIGAN

CITY           SKY/WX    TMP DP  RH WIND       PRES   REMARKS
KINROSS        SUNNY     70  50  49 N14G21    30.05S
MACKINAC ISLAN SUNNY     72  49  44 N12       30.04F
NEWBERRY       SUNNY     69  51  54 N9G17     30.07F
S. S. MARIE    SUNNY     72  51  47 NW15      30.04R
$$
MIZ004>006-011>014-085-242000-
CENTRAL UPPER MICHIGAN

CITY           SKY/WX    TMP DP  RH WIND       PRES   REMARKS
MANISTIQUE     SUNNY     73  49  42 N13       30.06F
ESCANABA       SUNNY     74  54  49 N8        30.07
MENOMINEE      SUNNY     72  53  51 SE9       30.09
SAWYER-GWINN   SUNNY     70  52  52 N6        30.10
$$
MIZ001>003-009>011-084-242000-
WESTERN UPPER MICHIGAN

CITY           SKY/WX    TMP DP  RH WIND       PRES   REMARKS
IRON MOUNTAIN  SUNNY     75  50  41 CALM      30.08F
HOUGHTON       SUNNY     74  53  48 NW7       30.08F
COPPER HARBOR    N/A     59  53  80 N15       30.07S
IRONWOOD       SUNNY     75  50  41 SE8       30.08F
$$

ABBREVIATIONS USED IN REMARKS
   TC - TEMPERATURE IN CELSIUS
  WCI - WIND CHILL INDEX
   HX - HEAT INDEX
  VSB - VISIBILITY




USA.gov is the U.S. government's official web portal to all federal, state and local government web resources and services.